Starlink 31956

operational
NORAD ID: 59930 Int'l Des: 2024-106 Owner: SPXS Country: US Constellation: starlink
LEOCIRCULAR

Starlink 31956について

説明を読み込み中...

リアルタイム位置

3D地球を読み込み中...

次回通過

高度履歴

Altitude vs Time

uPlot chart will show altitude changes over time

軌道要素

1 59930U 24106J 25351.63251265 -.00001440 00000-0 -42807-4 0 9991
2 59930 43.0029 75.9014 0001295 182.2497 177.8349 15.27579982 87977
Epoch: Dec 17, 2025 • Age: 7 hours

現在のステータス

高度 481.2 km
速度 7.63 km/s
衛星直下点 10.68°N, 176.73°W
打ち上げ日 Jun 1, 2024
運用期間 1.5 years
タイプ internet

技術仕様

分類 Payload
質量 730.00 kg
乾燥質量 700.00 kg
総質量 730.00 kg
長さ 0.30 m
直径 4.10 m
スパン 29.00 m
形状 Box + pan
製造者 SPXS
バスタイプ Starlink V2M
フェーズステータス In Orbit
所有者/国 SPXS/US

大規模コンステレーション

Loading constellations...